<?xml version="1.0"?>
<gpx xmlns="http://www.topografix.com/GPX/1/1" xmlns:xsi="http://www.w3.org/2001/XMLSchema-instance" version="1.1" creator="GPX RubyGem 1.0.0 -- http://dougfales.github.io/gpx/" xsi:schemaLocation="http://www.topografix.com/GPX/1/1 http://www.topografix.com/GPX/1/1/gpx.xsd">
  <metadata>
    <name/>
    <time>2026-05-07T21:02:11+00:00</time>
    <bound minlat="90.0" minlon="180.0" maxlat="-90.0" maxlon="-180.0"/>
  </metadata>
  <trk>
    <name/>
    <trkseg>
      <trkpt lat="46.485858" lon="6.920016">
        <time>1970-01-01T00:00:00+00:00</time>
        <ele>1209.0</ele>
      </trkpt>
      <trkpt lat="46.485806" lon="6.920081">
        <time>1970-01-01T00:00:00+00:00</time>
        <ele>1209.0</ele>
      </trkpt>
      <trkpt lat="46.485765" lon="6.919846">
        <time>1970-01-01T00:00:00+00:00</time>
        <ele>1210.0</ele>
      </trkpt>
      <trkpt lat="46.485974" lon="6.919613">
        <time>1970-01-01T00:00:00+00:00</time>
        <ele>1212.0</ele>
      </trkpt>
      <trkpt lat="46.486038" lon="6.9196">
        <time>1970-01-01T00:00:00+00:00</time>
        <ele>1212.0</ele>
      </trkpt>
      <trkpt lat="46.486156" lon="6.919639">
        <time>1970-01-01T00:00:00+00:00</time>
        <ele>1212.0</ele>
      </trkpt>
      <trkpt lat="46.486321" lon="6.919821">
        <time>1970-01-01T00:00:00+00:00</time>
        <ele>1213.0</ele>
      </trkpt>
      <trkpt lat="46.486355" lon="6.919828">
        <time>1970-01-01T00:00:00+00:00</time>
        <ele>1213.0</ele>
      </trkpt>
      <trkpt lat="46.486438" lon="6.919909">
        <time>1970-01-01T00:00:00+00:00</time>
        <ele>1214.0</ele>
      </trkpt>
      <trkpt lat="46.48649" lon="6.919925">
        <time>1970-01-01T00:00:00+00:00</time>
        <ele>1215.0</ele>
      </trkpt>
      <trkpt lat="46.486601" lon="6.919965">
        <time>1970-01-01T00:00:00+00:00</time>
        <ele>1215.0</ele>
      </trkpt>
      <trkpt lat="46.486895" lon="6.920134">
        <time>1970-01-01T00:00:00+00:00</time>
        <ele>1216.0</ele>
      </trkpt>
      <trkpt lat="46.487163" lon="6.920193">
        <time>1970-01-01T00:00:00+00:00</time>
        <ele>1217.0</ele>
      </trkpt>
      <trkpt lat="46.487311" lon="6.920281">
        <time>1970-01-01T00:00:00+00:00</time>
        <ele>1217.0</ele>
      </trkpt>
      <trkpt lat="46.487601" lon="6.920311">
        <time>1970-01-01T00:00:00+00:00</time>
        <ele>1215.0</ele>
      </trkpt>
      <trkpt lat="46.487889" lon="6.92027">
        <time>1970-01-01T00:00:00+00:00</time>
        <ele>1214.0</ele>
      </trkpt>
      <trkpt lat="46.488045" lon="6.920286">
        <time>1970-01-01T00:00:00+00:00</time>
        <ele>1214.0</ele>
      </trkpt>
      <trkpt lat="46.488277" lon="6.92026">
        <time>1970-01-01T00:00:00+00:00</time>
        <ele>1213.0</ele>
      </trkpt>
      <trkpt lat="46.488695" lon="6.920255">
        <time>1970-01-01T00:00:00+00:00</time>
        <ele>1216.0</ele>
      </trkpt>
      <trkpt lat="46.488784" lon="6.920177">
        <time>1970-01-01T00:00:00+00:00</time>
        <ele>1217.0</ele>
      </trkpt>
      <trkpt lat="46.489031" lon="6.920222">
        <time>1970-01-01T00:00:00+00:00</time>
        <ele>1219.0</ele>
      </trkpt>
      <trkpt lat="46.489168" lon="6.920168">
        <time>1970-01-01T00:00:00+00:00</time>
        <ele>1219.0</ele>
      </trkpt>
      <trkpt lat="46.489258" lon="6.920158">
        <time>1970-01-01T00:00:00+00:00</time>
        <ele>1220.0</ele>
      </trkpt>
      <trkpt lat="46.489545" lon="6.92004">
        <time>1970-01-01T00:00:00+00:00</time>
        <ele>1226.0</ele>
      </trkpt>
      <trkpt lat="46.489686" lon="6.919935">
        <time>1970-01-01T00:00:00+00:00</time>
        <ele>1227.0</ele>
      </trkpt>
      <trkpt lat="46.489722" lon="6.92001">
        <time>1970-01-01T00:00:00+00:00</time>
        <ele>1228.0</ele>
      </trkpt>
      <trkpt lat="46.490182" lon="6.920507">
        <time>1970-01-01T00:00:00+00:00</time>
        <ele>1230.0</ele>
      </trkpt>
      <trkpt lat="46.490302" lon="6.920478">
        <time>1970-01-01T00:00:00+00:00</time>
        <ele>1230.0</ele>
      </trkpt>
      <trkpt lat="46.490428" lon="6.920394">
        <time>1970-01-01T00:00:00+00:00</time>
        <ele>1230.0</ele>
      </trkpt>
      <trkpt lat="46.490589" lon="6.92054">
        <time>1970-01-01T00:00:00+00:00</time>
        <ele>1232.0</ele>
      </trkpt>
      <trkpt lat="46.490621" lon="6.920539">
        <time>1970-01-01T00:00:00+00:00</time>
        <ele>1232.0</ele>
      </trkpt>
      <trkpt lat="46.490641" lon="6.920567">
        <time>1970-01-01T00:00:00+00:00</time>
        <ele>1232.0</ele>
      </trkpt>
      <trkpt lat="46.490691" lon="6.920585">
        <time>1970-01-01T00:00:00+00:00</time>
        <ele>1232.0</ele>
      </trkpt>
      <trkpt lat="46.490916" lon="6.920831">
        <time>1970-01-01T00:00:00+00:00</time>
        <ele>1234.0</ele>
      </trkpt>
      <trkpt lat="46.490997" lon="6.920837">
        <time>1970-01-01T00:00:00+00:00</time>
        <ele>1233.0</ele>
      </trkpt>
      <trkpt lat="46.491045" lon="6.920808">
        <time>1970-01-01T00:00:00+00:00</time>
        <ele>1233.0</ele>
      </trkpt>
      <trkpt lat="46.491051" lon="6.920755">
        <time>1970-01-01T00:00:00+00:00</time>
        <ele>1233.0</ele>
      </trkpt>
      <trkpt lat="46.491095" lon="6.920555">
        <time>1970-01-01T00:00:00+00:00</time>
        <ele>1232.0</ele>
      </trkpt>
      <trkpt lat="46.491095" lon="6.920555">
        <time>1970-01-01T00:00:00+00:00</time>
        <ele>1232.0</ele>
      </trkpt>
      <trkpt lat="46.491051" lon="6.920755">
        <time>1970-01-01T00:00:00+00:00</time>
        <ele>1233.0</ele>
      </trkpt>
      <trkpt lat="46.491045" lon="6.920808">
        <time>1970-01-01T00:00:00+00:00</time>
        <ele>1233.0</ele>
      </trkpt>
      <trkpt lat="46.490997" lon="6.920837">
        <time>1970-01-01T00:00:00+00:00</time>
        <ele>1233.0</ele>
      </trkpt>
      <trkpt lat="46.490916" lon="6.920831">
        <time>1970-01-01T00:00:00+00:00</time>
        <ele>1234.0</ele>
      </trkpt>
      <trkpt lat="46.490691" lon="6.920585">
        <time>1970-01-01T00:00:00+00:00</time>
        <ele>1232.0</ele>
      </trkpt>
      <trkpt lat="46.490641" lon="6.920567">
        <time>1970-01-01T00:00:00+00:00</time>
        <ele>1232.0</ele>
      </trkpt>
      <trkpt lat="46.490621" lon="6.920539">
        <time>1970-01-01T00:00:00+00:00</time>
        <ele>1232.0</ele>
      </trkpt>
      <trkpt lat="46.490589" lon="6.92054">
        <time>1970-01-01T00:00:00+00:00</time>
        <ele>1232.0</ele>
      </trkpt>
      <trkpt lat="46.490428" lon="6.920394">
        <time>1970-01-01T00:00:00+00:00</time>
        <ele>1230.0</ele>
      </trkpt>
      <trkpt lat="46.490302" lon="6.920478">
        <time>1970-01-01T00:00:00+00:00</time>
        <ele>1230.0</ele>
      </trkpt>
      <trkpt lat="46.490182" lon="6.920507">
        <time>1970-01-01T00:00:00+00:00</time>
        <ele>1230.0</ele>
      </trkpt>
      <trkpt lat="46.489722" lon="6.92001">
        <time>1970-01-01T00:00:00+00:00</time>
        <ele>1228.0</ele>
      </trkpt>
      <trkpt lat="46.489686" lon="6.919935">
        <time>1970-01-01T00:00:00+00:00</time>
        <ele>1227.0</ele>
      </trkpt>
      <trkpt lat="46.489545" lon="6.92004">
        <time>1970-01-01T00:00:00+00:00</time>
        <ele>1226.0</ele>
      </trkpt>
      <trkpt lat="46.489258" lon="6.920158">
        <time>1970-01-01T00:00:00+00:00</time>
        <ele>1220.0</ele>
      </trkpt>
      <trkpt lat="46.489168" lon="6.920168">
        <time>1970-01-01T00:00:00+00:00</time>
        <ele>1219.0</ele>
      </trkpt>
      <trkpt lat="46.489031" lon="6.920222">
        <time>1970-01-01T00:00:00+00:00</time>
        <ele>1219.0</ele>
      </trkpt>
      <trkpt lat="46.488784" lon="6.920177">
        <time>1970-01-01T00:00:00+00:00</time>
        <ele>1217.0</ele>
      </trkpt>
      <trkpt lat="46.488695" lon="6.920255">
        <time>1970-01-01T00:00:00+00:00</time>
        <ele>1216.0</ele>
      </trkpt>
      <trkpt lat="46.488277" lon="6.92026">
        <time>1970-01-01T00:00:00+00:00</time>
        <ele>1213.0</ele>
      </trkpt>
      <trkpt lat="46.488045" lon="6.920286">
        <time>1970-01-01T00:00:00+00:00</time>
        <ele>1214.0</ele>
      </trkpt>
      <trkpt lat="46.487889" lon="6.92027">
        <time>1970-01-01T00:00:00+00:00</time>
        <ele>1214.0</ele>
      </trkpt>
      <trkpt lat="46.487601" lon="6.920311">
        <time>1970-01-01T00:00:00+00:00</time>
        <ele>1215.0</ele>
      </trkpt>
      <trkpt lat="46.487311" lon="6.920281">
        <time>1970-01-01T00:00:00+00:00</time>
        <ele>1217.0</ele>
      </trkpt>
      <trkpt lat="46.487163" lon="6.920193">
        <time>1970-01-01T00:00:00+00:00</time>
        <ele>1217.0</ele>
      </trkpt>
      <trkpt lat="46.486895" lon="6.920134">
        <time>1970-01-01T00:00:00+00:00</time>
        <ele>1216.0</ele>
      </trkpt>
      <trkpt lat="46.486601" lon="6.919965">
        <time>1970-01-01T00:00:00+00:00</time>
        <ele>1215.0</ele>
      </trkpt>
      <trkpt lat="46.48649" lon="6.919925">
        <time>1970-01-01T00:00:00+00:00</time>
        <ele>1215.0</ele>
      </trkpt>
      <trkpt lat="46.486438" lon="6.919909">
        <time>1970-01-01T00:00:00+00:00</time>
        <ele>1214.0</ele>
      </trkpt>
      <trkpt lat="46.486355" lon="6.919828">
        <time>1970-01-01T00:00:00+00:00</time>
        <ele>1213.0</ele>
      </trkpt>
      <trkpt lat="46.486321" lon="6.919821">
        <time>1970-01-01T00:00:00+00:00</time>
        <ele>1213.0</ele>
      </trkpt>
      <trkpt lat="46.486156" lon="6.919639">
        <time>1970-01-01T00:00:00+00:00</time>
        <ele>1212.0</ele>
      </trkpt>
      <trkpt lat="46.486038" lon="6.9196">
        <time>1970-01-01T00:00:00+00:00</time>
        <ele>1212.0</ele>
      </trkpt>
      <trkpt lat="46.485974" lon="6.919613">
        <time>1970-01-01T00:00:00+00:00</time>
        <ele>1212.0</ele>
      </trkpt>
      <trkpt lat="46.485765" lon="6.919846">
        <time>1970-01-01T00:00:00+00:00</time>
        <ele>1210.0</ele>
      </trkpt>
      <trkpt lat="46.485806" lon="6.920081">
        <time>1970-01-01T00:00:00+00:00</time>
        <ele>1209.0</ele>
      </trkpt>
      <trkpt lat="46.485858" lon="6.920016">
        <time>1970-01-01T00:00:00+00:00</time>
        <ele>1209.0</ele>
      </trkpt>
    </trkseg>
  </trk>
</gpx>
